[[{"header":{"parameterUnit":"m.s-1","parameterCategory":1,"la1":30.2991,"la2":30.254,"lo1":-89.0895,"lo2":-89.0444,"dy":0.0017,"dx":0.0017,"nx":28,"ny":28,"refTime":"2025-05-17T21:00:00:Z","depth":0,"parameterNumber":2,"parameterNumberName":"U-component_of_WINDS"},"data":[0,0,0,0,0,0,0,0,0,0,0,0,0,0,0,0,0,0,0,0,0,0,0,0,0,0,0,0,0,0,0,0,0,0,0,0,0,0,0,0,0,0,0,0,0,0,0,0,0,0,0,0,0,0,0,0,0,0,-0.9231,-0.9231,0,-0.9236,-0.9236,-0.9236,-0.923,-0.9229,-0.9229,-0.9229,-0.9233,-0.9234,-0.9234,0,0,0,0,0,0,0,0,0,0,0,0,0,-0.9216,-0.9216,-0.9231,-0.9231,-0.9231,-0.9236,-0.9236,-0.9236,-0.923,-0.9229,-0.9229,-0.9229,-0.9233,-0.9234,-0.9234,0,0,0,0,0,0,0,0,0,0,0,0,0,-0.9222,-0.9216,-0.9231,-0.9228,-0.9228,-0.9236,-0.9236,-0.9236,-0.923,-0.9229,-0.9229,-0.9229,-0.9233,-0.9234,-0.9234,-0.9244,0,0,-0.9236,-0.9236,0,0,0,0,0,0,0,0,-0.9222,-0.9222,-0.9229,-0.9229,-0.9228,-0.9232,-0.9232,-0.9239,-0.923,-0.9229,-0.9229,-0.9228,-0.9233,-0.9234,-0.9235,-0.9244,-0.9245,-0.9236,-0.9236,-0.9236,-0.9236,0,0,0,0,0,0,0,-0.9221,-0.9222,-0.9233,-0.9229,-0.9229,-0.9227,-0.9228,-0.9234,-0.9233,-0.9229,-0.9229,-0.9229,-0.9233,-0.9235,-0.9235,-0.9245,-0.9236,-0.9236,-0.9236,-0.9237,-0.9263,-0.9263,0,0,0,0,0,0,-0.9221,-0.9222,-0.9233,-0.9233,-0.9224,-0.9228,-0.9228,-0.9231,-0.9233,-0.9233,-0.923,-0.9229,-0.9234,-0.9235,-0.9235,-0.9247,-0.9236,-0.9237,-0.9237,-0.9263,-0.9263,-0.9264,0,0,0,0,0,0,-0.9221,-0.9222,-0.9232,-0.9227,-0.9228,-0.9228,-0.9231,-0.9231,-0.9233,-0.9233,-0.9233,-0.9232,-0.9234,-0.9235,-0.9242,-0.9247,-0.9237,-0.9237,-0.9262,-0.9263,-0.9263,-0.9271,0,0,0,0,0,0,-0.922,-0.9222,-0.9226,-0.9227,-0.9229,-0.9239,-0.9232,-0.9232,-0.9234,-0.9233,-0.9235,-0.9235,-0.9234,-0.9242,-0.9243,-0.9248,-0.9238,-0.9262,-0.9262,-0.9263,-0.9271,-0.9272,-0.9273,0,0,0,0,0,-0.922,-0.9227,-0.9226,-0.9227,-0.9233,-0.9239,-0.924,-0.9238,-0.9234,-0.9238,-0.9239,-0.9235,-0.9247,-0.9242,-0.9244,-0.9249,-0.9261,-0.9262,-0.9263,-0.927,-0.9272,-0.9273,0,0,0,0,0,0,-0.9226,-0.9227,-0.9226,-0.9234,-0.9237,-0.9238,-0.9243,-0.924,-0.9244,-0.9243,-0.9241,-0.9241,-0.9249,-0.925,-0.9245,-0.9259,-0.9254,-0.9255,-0.9258,-0.926,-0.9261,-0.9261,-0.9238,0,0,0,0,0,-0.9228,-0.9233,-0.9234,-0.9241,-0.9243,-0.9243,-0.9245,-0.9244,-0.9246,-0.9247,-0.9248,-0.925,-0.9255,-0.9258,-0.9262,-0.9271,-0.9271,-0.9276,-0.9277,-0.9278,-0.9279,-0.9284,-0.9286,-0.9267,-0.9267,-0.9267,0,0,-0.9233,-0.9234,-0.9237,-0.9243,-0.9244,-0.9249,-0.9243,-0.9249,-0.9252,-0.9248,-0.9255,-0.9256,-0.9259,-0.9267,-0.9271,-0.9268,-0.9285,-0.9279,-0.928,-0.928,-0.9285,-0.9287,-0.9289,-0.9267,-0.9267,-0.9267,0,0,-0.9243,-0.9245,-0.9251,-0.9254,-0.9257,-0.9257,-0.9259,-0.9261,-0.9261,-0.9269,-0.9266,-0.927,-0.9278,-0.928,-0.9282,-0.9295,-0.9292,-0.9297,-0.9304,-0.9309,-0.931,-0.9312,-0.9316,-0.9318,-0.9298,-0.9298,-0.9298,0,-0.9248,-0.9256,-0.9255,-0.9261,-0.9263,-0.926,-0.9267,-0.9269,-0.9273,-0.9275,-0.9272,-0.9282,-0.9284,-0.9293,-0.9296,-0.9298,-0.93,-0.9296,-0.931,-0.9312,-0.9313,-0.9317,-0.9319,-0.9298,-0.9298,-0.9298,-0.9298,0,-0.9262,-0.9267,-0.9272,-0.9277,-0.928,-0.9286,-0.9286,-0.929,-0.9289,-0.9289,-0.9297,-0.9299,-0.9304,-0.9306,-0.9305,-0.9316,-0.9314,-0.9311,-0.9305,-0.9315,-0.9319,-0.9321,-0.9299,-0.9299,-0.9299,-0.9298,0,0,-0.9275,-0.928,-0.9282,-0.9284,-0.9288,-0.9292,-0.9298,-0.9303,-0.9306,-0.931,-0.9315,-0.9322,-0.932,-0.9322,-0.9321,-0.9326,-0.9337,-0.9323,-0.9323,-0.9325,-0.9348,-0.935,-0.9352,-0.9335,-0.9336,-0.9336,-0.9348,0,-0.9285,-0.9296,-0.9296,-0.9307,-0.9312,-0.931,-0.9315,-0.9318,-0.932,-0.9324,-0.9325,-0.933,-0.9327,-0.9328,-0.9333,-0.9334,-0.9341,-0.9334,-0.934,-0.934,-0.9338,-0.9354,-0.9355,-0.9367,-0.9349,-0.935,-0.935,0,-0.9299,-0.9303,-0.9314,-0.9318,-0.932,-0.9325,-0.933,-0.9334,-0.9338,-0.9339,-0.9342,-0.9341,-0.9348,-0.9343,-0.9352,-0.9347,-0.935,-0.9351,-0.9351,-0.9351,-0.9345,-0.9353,-0.937,-0.9372,-0.9352,-0.9352,-0.9352,0,-0.9307,-0.9315,-0.9323,-0.9325,-0.933,-0.9333,-0.9335,-0.9339,-0.9342,-0.9347,-0.9349,-0.9354,-0.9357,-0.9361,-0.9362,-0.9358,-0.9371,-0.9366,-0.9371,-0.9371,-0.9373,-0.9373,-0.939,-0.9377,-0.9377,-0.9377,-0.9377,0,-0.9318,-0.9324,-0.9326,-0.9331,-0.9338,-0.9339,-0.9346,-0.9348,-0.9352,-0.9357,-0.9356,-0.9361,-0.9362,-0.9367,-0.9367,-0.9375,-0.9376,-0.9377,-0.9377,-0.9376,-0.9376,-0.9377,-0.9376,-0.9377,-0.9377,-0.9377,-0.9377,0,-0.9327,-0.9329,-0.9337,-0.9341,-0.9343,-0.9348,-0.9352,-0.9356,-0.9358,-0.9364,-0.9366,-0.9368,-0.9374,-0.9376,-0.9383,-0.9383,-0.9392,-0.9392,-0.9391,-0.9391,-0.9396,-0.9395,-0.9414,-0.9416,-0.9402,-0.9402,-0.9402,0,-0.9334,-0.9339,-0.9344,-0.9347,-0.935,-0.9355,-0.9359,-0.936,-0.9364,-0.9369,-0.9373,-0.9379,-0.9384,-0.9394,-0.9396,-0.9402,-0.9401,-0.9407,-0.9402,-0.9402,-0.9401,-0.94,-0.94,-0.9408,-0.9408,-0.9408,-0.9408,0,-0.9345,-0.9346,-0.9351,-0.9357,-0.9361,-0.9365,-0.937,-0.9373,-0.9375,-0.9379,-0.9385,-0.9389,-0.9397,-0.9403,-0.9409,-0.9411,-0.941,-0.941,-0.9412,-0.9411,-0.941,-0.941,-0.9393,-0.9409,-0.9409,-0.9409,-0.9409,-0.9409,-0.9353,-0.9357,-0.9362,-0.9368,-0.9371,-0.9376,-0.938,-0.9383,-0.9388,-0.9394,-0.9395,-0.9402,-0.9407,-0.9415,-0.9418,-0.9423,-0.9421,-0.9423,-0.9424,-0.9424,-0.9424,-0.941,-0.9424,-0.9424,-0.9424,-0.9424,-0.9424,0,-0.9364,-0.9367,-0.9372,-0.9379,-0.9383,-0.9383,-0.9388,-0.9392,-0.9398,-0.9402,-0.9407,-0.9415,-0.9421,-0.9425,-0.9431,-0.9435,-0.9434,-0.9436,-0.9435,-0.9436,-0.9426,-0.9424,-0.9436,-0.9436,-0.9436,-0.9436,-0.9436,-0.9436,-0.937,-0.9377,-0.9379,-0.9389,-0.9392,-0.9399,-0.9402,-0.9406,-0.9409,-0.9418,-0.9423,-0.9426,-0.943,-0.9437,-0.9442,-0.9443,-0.9445,-0.9447,-0.9448,-0.9438,-0.9437,-0.9435,-0.9433,-0.9448,-0.9448,-0.9457,-0.9457,-0.9457]},{"header":{"parameterUnit":"m.s-1","parameterCategory":1,"la1":30.2991,"la2":30.254,"lo1":-89.0895,"lo2":-89.0444,"dy":0.0017,"dx":0.0017,"nx":28,"ny":28,"refTime":"2025-05-17T21:00:00:Z","depth":0,"parameterNumber":3,"parameterNumberName":"V-component_of_WINDS"},"data":[0,0,0,0,0,0,0,0,0,0,0,0,0,0,0,0,0,0,0,0,0,0,0,0,0,0,0,0,0,0,0,0,0,0,0,0,0,0,0,0,0,0,0,0,0,0,0,0,0,0,0,0,0,0,0,0,0,0,4.4472,4.4471,0,4.4463,4.4463,4.4463,4.447,4.4471,4.4471,4.4471,4.4456,4.4456,4.4455,0,0,0,0,0,0,0,0,0,0,0,0,0,4.4489,4.4488,4.4472,4.4471,4.4471,4.4463,4.4463,4.4463,4.447,4.4471,4.4471,4.4472,4.4456,4.4456,4.4455,0,0,0,0,0,0,0,0,0,0,0,0,0,4.4481,4.4488,4.4472,4.4474,4.4474,4.4464,4.4463,4.4463,4.447,4.4471,4.4471,4.4472,4.4457,4.4456,4.4455,4.4439,0,0,4.4452,4.4451,0,0,0,0,0,0,0,0,4.4481,4.448,4.4474,4.4474,4.4474,4.4469,4.4464,4.4455,4.447,4.4472,4.4471,4.4472,4.446,4.4458,4.4456,4.4438,4.4437,4.4451,4.4451,4.445,4.445,0,0,0,0,0,0,0,4.4482,4.4481,4.4468,4.4474,4.4474,4.4474,4.4474,4.4462,4.4463,4.4472,4.4472,4.4471,4.446,4.4457,4.4455,4.4437,4.4451,4.4451,4.445,4.4449,4.4409,4.4409,0,0,0,0,0,0,4.4483,4.4481,4.4468,4.4468,4.4479,4.4474,4.4473,4.447,4.4463,4.4463,4.4471,4.4472,4.4458,4.4456,4.4455,4.4438,4.445,4.4449,4.4449,4.441,4.4409,4.4409,0,0,0,0,0,0,4.4483,4.4482,4.4469,4.4475,4.4473,4.4473,4.4469,4.4469,4.4466,4.4463,4.4462,4.4468,4.4458,4.4456,4.4444,4.4437,4.4449,4.4448,4.441,4.441,4.4409,4.4402,0,0,0,0,0,0,4.4484,4.4482,4.4477,4.4475,4.4473,4.4459,4.4469,4.4469,4.4465,4.4466,4.446,4.4459,4.4459,4.4445,4.4443,4.4436,4.4447,4.4411,4.441,4.4409,4.4403,4.4401,4.44,0,0,0,0,0,4.4484,4.4473,4.4476,4.4475,4.4467,4.4459,4.4458,4.4459,4.4465,4.4459,4.4457,4.4459,4.4439,4.4444,4.4441,4.4434,4.4411,4.441,4.4409,4.4403,4.4402,4.44,0,0,0,0,0,0,4.447,4.4472,4.4476,4.4464,4.4462,4.446,4.4453,4.4457,4.445,4.4451,4.4452,4.445,4.4438,4.4434,4.4441,4.442,4.4426,4.4424,4.4422,4.442,4.4419,4.442,4.4446,0,0,0,0,0,4.4467,4.4462,4.4463,4.4452,4.4451,4.4453,4.4449,4.4451,4.4447,4.4446,4.4443,4.4438,4.443,4.4425,4.4418,4.4403,4.4402,4.4396,4.4395,4.4394,4.4392,4.4386,4.4384,4.4405,4.4405,4.4405,0,0,4.4457,4.4458,4.4454,4.445,4.4448,4.4442,4.4451,4.4444,4.444,4.4444,4.4433,4.4431,4.4425,4.4413,4.4406,4.4409,4.4386,4.4392,4.4392,4.4391,4.4385,4.4383,4.4381,4.4405,4.4405,4.4405,0,0,4.4438,4.4438,4.443,4.4429,4.4428,4.443,4.4428,4.4427,4.4426,4.4416,4.442,4.4414,4.4401,4.4398,4.4394,4.4378,4.438,4.4375,4.4367,4.4361,4.4359,4.4358,4.4353,4.4351,4.4373,4.4373,4.4373,0,4.4426,4.442,4.4425,4.4419,4.4417,4.4424,4.4416,4.4414,4.4409,4.4408,4.4412,4.4398,4.4394,4.4381,4.4378,4.4374,4.4372,4.4375,4.4359,4.4358,4.4357,4.4352,4.435,4.4373,4.4373,4.4373,4.4373,0,4.4406,4.4401,4.4395,4.4394,4.4392,4.4384,4.4388,4.4384,4.4387,4.4388,4.4379,4.4375,4.4369,4.4366,4.4367,4.4354,4.4356,4.436,4.4366,4.4354,4.435,4.4348,4.4372,4.4373,4.4373,4.4373,0,0,4.4375,4.4381,4.4378,4.4379,4.438,4.4376,4.4369,4.4366,4.4363,4.436,4.4355,4.4345,4.435,4.4346,4.4347,4.4342,4.4331,4.4346,4.4346,4.4344,4.4319,4.4316,4.4314,4.4333,4.4333,4.4333,4.4319,0,4.4358,4.4349,4.4355,4.4345,4.4341,4.435,4.4344,4.4343,4.4344,4.4341,4.4341,4.4335,4.4341,4.4339,4.4334,4.4334,4.4326,4.4335,4.4327,4.4327,4.4329,4.4312,4.4309,4.4296,4.4318,4.4317,4.4317,0,4.4335,4.4335,4.4326,4.433,4.4328,4.4324,4.4322,4.4319,4.4318,4.432,4.4318,4.4321,4.4314,4.4321,4.4312,4.4318,4.4316,4.4315,4.4315,4.4314,4.4321,4.4311,4.4292,4.4291,4.4314,4.4315,4.4315,0,4.4316,4.4313,4.4308,4.4308,4.4312,4.4309,4.431,4.4311,4.4309,4.4307,4.4307,4.4303,4.4301,4.4298,4.43,4.4305,4.4291,4.4298,4.4292,4.4292,4.4288,4.4288,4.4269,4.4286,4.4286,4.4286,4.4286,0,4.4295,4.4289,4.43,4.4296,4.429,4.4297,4.429,4.4292,4.4293,4.429,4.4296,4.4292,4.4295,4.4292,4.4293,4.4286,4.4285,4.4285,4.4286,4.4285,4.4285,4.4283,4.4284,4.4286,4.4286,4.4286,4.4286,0,4.4272,4.4279,4.4274,4.428,4.4282,4.4277,4.4281,4.4278,4.4281,4.4277,4.4276,4.428,4.4276,4.4279,4.4274,4.4275,4.4267,4.4268,4.4268,4.4268,4.4263,4.4264,4.4242,4.424,4.4258,4.4258,4.4257,0,4.4259,4.4255,4.4262,4.4262,4.4264,4.4262,4.4262,4.4269,4.4268,4.4269,4.4266,4.4264,4.4262,4.4256,4.4258,4.4255,4.4256,4.4249,4.4256,4.4256,4.4257,4.4258,4.4258,4.4248,4.4247,4.4247,4.4247,0,4.4235,4.424,4.424,4.4243,4.4243,4.4244,4.4246,4.4244,4.4252,4.425,4.4249,4.4248,4.4246,4.4243,4.4242,4.4242,4.4245,4.4245,4.4244,4.4243,4.4244,4.4244,4.4265,4.4245,4.4246,4.4246,4.4246,4.4246,4.4217,4.4215,4.4221,4.4222,4.4225,4.4227,4.4225,4.4229,4.4229,4.4229,4.4233,4.4231,4.4232,4.4231,4.4231,4.4228,4.4231,4.4229,4.4228,4.4228,4.4228,4.4244,4.4228,4.4228,4.4228,4.4228,4.4228,0,4.4195,4.42,4.4201,4.4205,4.4206,4.4212,4.4215,4.4215,4.4214,4.4216,4.4216,4.4214,4.4213,4.4216,4.4215,4.4213,4.4214,4.4212,4.4212,4.4212,4.4224,4.4226,4.4211,4.4211,4.4211,4.4211,4.4211,4.4211,4.4183,4.4181,4.4187,4.4186,4.419,4.419,4.4192,4.4194,4.4196,4.4195,4.4195,4.4198,4.4201,4.4201,4.42,4.42,4.42,4.4197,4.4198,4.4209,4.4211,4.4213,4.4215,4.4197,4.4197,4.4187,4.4186,4.4186]}]]